Showing default

SKYSAT C10, 42988

Orbit data source: Space-Track

SKYSAT C10, 42988 is a payload satellite owned by Terra Bella (US) in SSO that was launched on Tue, 31 Oct 2017 UTC via a MINOTAUR-C 3210 launch vehicle from the Air Force Western Test Range (AFWTR). Payload-class satellites include a variety of spacecraft equipped with specific instruments for various scientific and technological missions. These include communications satellites like Starlink; space stations such as the ISS; scientific satellites like the Hubble; Earth observation satellites from companies like Planet Labs, Umbra, and HawkEye 360; GPS; miniature CubeSats for education and research; and military/defense satellites.

Loading next visibility...
Identifier
42988, 2017-068B
Orbit
SSO
Country
Flag of USUS
Related business
Manufacturer
Maxar SSL
Mission
Partially operational Commercial Imaging
Bus & Motor
SKYSAT-GEN2, Unknown motor
Mass
110 kg wet, 110 kg dry
Launch date (UTC)
2017-10-31 (9 years ago)
Launch vehicle
MINOTAUR-C 3210
Launch site
Air Force Western Test Range (AFWTR)
Object type
Payload
Rocket body
Debris
Shape & HBR
Box, 1.0 m
Radar Cross Section
0.888 m², Medium (>0.1 m² and < 1m²)

Expand to show TLE details & history
Last TLE update: 5 hours ago

TLE from 5 hours ago
0 SKYSAT C10
1 42988U 17068B   26263.63762436  .00007086  00000-0  20355-3 0  9998
2 42988  97.4630  41.5998 0001316  87.4852 272.6543 15.36147688497001
Epoch: 2026-09-20T15:18Z
TLE epoch observation values (Epoch: 2026-09-20T15:18:10.744Z)
Latitude
0.00003°
Longitude
172.52609°
Altitude
460.583 km
Speed
7.636 km/s
True Right ascension
02h 46m 23s
True Declination
0° 00' 00"
Sunlit
Object was in full shadow at epoch
Visualization orbit readout
Latitude
Unknown
Longitude
Unknown
Altitude
Unknown
Speed
Unknown
Apparent Right ascension
Unknown
Apparent Declination
Unknown
Sunlit
N/A
Visualization observer readout
Local Sidereal Time
13:02:26
Azimuth
Unknown
Elevation
Unknown
Doppler factor
Unknown
Orbital elements
Apogee altitude
455.36 km
Perigee altitude
453.561 km
Semi-major axis
6,832.597 km
Eccentricity
0.00013
Inclination
97.463°
RAAN
41.5998°
Arg. of periapsis
87.4852°
True anomaly
272.63924°
Mean anomaly
272.6543°
Eccentric anomaly
272.64677°
Mean motion
3.84295 °/min
Orbital period
93.68 mins
BSTAR
0.00020355
Loading maneuver chart data...
Computing Atmospheric mass density...
Loading historical data...
Loading historical data...
Loading historical data...
Loading historical data...
Loading historical data...
Loading historical data...
Loading historical data...

Documentation

Showing up to 5 results
|